Location: Cormont
(50.5693°N, 1.7416°E)
Time: 03:55:33
(UTC+00:00)

CENTAUR R/B - Pass Details

Date: 21 October 2019
Orbit: 781 x 1407 km, 63.4° (Epoch: 10 November)

Event Time Altitude Azimuth Distance (km) Brightness Sun altitude
Rises 18:33:46 0° 185° (S) 3,435 5.4 -17.2°
Reaches altitude 10° 18:36:20 10° 175° (S) 2,574 4.6 -17.6°
Maximum altitude 18:41:34 32° 114° (ESE) 1,627 3.1 -18.4°
Enters shadow 18:42:40 30° 95° (E) 1,714 3.2 -18.6°
